Erie, PA

2:42 PM EST on November 12, 2019 (GMT -0500)
Erie International

Weather History for KERI - September, 2019

Change the Weather History Date:

Monday, September 9, 2019

  Actual Average Record
Temperature  
Mean Temperature 62 °F 66 °F  
Max Temperature 71 °F 74 °F 94 °F (1959)
Min Temperature 53 °F 58 °F 42 °F (1956)
Degree Days  
Heating Degree Days 3 2  
Month to date heating degree days 8 12  
Since 1 July heating degree days 9 30  
Cooling Degree Days 0 3  
Month to date cooling degree days 26 33  
Year to date cooling degree days 716 591  
Growing Degree Days 12 (Base 50)    
Moisture  
Dew Point 51 °F    
Average Humidity 67    
Maximum Humidity 86    
Minimum Humidity 49    
Precipitation  
Precipitation 0.00 in 0.14 in 1.68 in (2004)
Month to date precipitation 1.31 1.21  
Year to date precipitation 27.63 27.04  
Snow  
Snow 0.00 in 0.00 in - ()
Month to date snowfall 0.0 0.0  
Since 1 July snowfall 0.0 0.0  
Since 1 September snowfall 0.0 0.0  
Snow Depth 0.00 in    
Sea Level Pressure  
Sea Level Pressure 30.26 in    
Wind  
Wind Speed 3 mph ()    
Max Wind Speed 14 mph    
Max Gust Speed 17 mph    
Visibility 10.0 miles    
Events      
T = Trace of Precipitation, MM = Missing Value Source: Averaged Metar Reports

Daily Weather History Graph

Daily Weather History Graph

Search for Another Location

Airport or City:

Astronomy

Sep. 09, 2019 Rise Set
Actual Time 6:54 AM EDT 7:41 PM EDT
Civil Twilight 6:25 AM EDT 8:09 PM EDT
Nautical Twilight 5:52 AM EDT 8:42 PM EDT
Astronomical Twilight 5:17 AM EDT 9:17 PM EDT
Moon 5:40 PM EDT (9/9) 2:19 AM EDT (9/9)
Length of Visible Light 13h 43m
Length of Day
12h 46m
Waxing Gibbous, 83% of the Moon is Illuminated
Sep 9
Waxing Gibbous
Sep 14
Full
Sep 21
Last Quarter
Sep 28
New
Oct 5
First Quarter

Hourly Weather History & Observations

Time (EDT) Temp. Dew Point Humidity Pressure Visibility Wind Dir Wind Speed Gust Speed Precip Events Conditions
12:51 AM 57.9 °F 51.1 °F 78% 30.20 in 10.0 mi Calm Calm - N/A   Clear
1:51 AM 55.9 °F 51.1 °F 84% 30.22 in 10.0 mi Calm Calm - N/A   Clear
2:51 AM 57.0 °F 51.1 °F 81% 30.21 in 10.0 mi Calm Calm - N/A   Clear
3:51 AM 55.9 °F 51.1 °F 84% 30.21 in 10.0 mi Calm Calm - N/A   Clear
4:51 AM 55.9 °F 50.0 °F 80% 30.21 in 10.0 mi Calm Calm - N/A   Clear
5:51 AM 55.9 °F 50.0 °F 80% 30.22 in 10.0 mi Calm Calm - N/A   Clear
6:51 AM 54.0 °F 48.9 °F 83% 30.25 in 10.0 mi Calm Calm - N/A   Clear
7:51 AM 55.9 °F 50.0 °F 80% 30.26 in 10.0 mi Calm Calm - N/A   Clear
8:51 AM 59.0 °F 52.0 °F 78% 30.27 in 10.0 mi Calm Calm - N/A   Clear
9:51 AM 64.0 °F 53.1 °F 67% 30.28 in 10.0 mi East 3.5 mph - N/A   Clear
10:51 AM 68.0 °F 51.1 °F 55% 30.28 in 10.0 mi East 5.8 mph - N/A   Scattered Clouds
11:51 AM 69.1 °F 50.0 °F 51% 30.27 in 10.0 mi North 8.1 mph - N/A   Clear
12:51 PM 69.1 °F 51.1 °F 53% 30.29 in 10.0 mi North 10.4 mph - N/A   Overcast
1:51 PM 68.0 °F 51.1 °F 55% 30.30 in 10.0 mi NNE 12.7 mph - N/A   Overcast
2:51 PM 69.1 °F 52.0 °F 54% 30.27 in 10.0 mi NE 11.5 mph - N/A   Overcast
3:51 PM 71.1 °F 52.0 °F 51% 30.25 in 10.0 mi NNE 9.2 mph - N/A   Clear
4:51 PM 70.0 °F 52.0 °F 53% 30.25 in 10.0 mi North 11.5 mph - N/A   Clear
5:51 PM 68.0 °F 52.0 °F 56% 30.27 in 10.0 mi NNE 10.4 mph - N/A   Clear
6:51 PM 66.9 °F 51.1 °F 57% 30.27 in 10.0 mi NNE 10.4 mph - N/A   Clear
7:51 PM 64.0 °F 51.1 °F 63% 30.28 in 10.0 mi NE 5.8 mph - N/A   Clear
8:51 PM 62.1 °F 50.0 °F 65% 30.27 in 10.0 mi East 4.6 mph - N/A   Clear
9:51 PM 60.1 °F 51.1 °F 72% 30.28 in 10.0 mi Calm Calm - N/A   Clear
11:51 PM 60.1 °F 50.0 °F 69% 30.27 in 10.0 mi ESE 3.5 mph - N/A   Clear